Location: Moydans
(44.3997°N, 5.5038°E)
Time: 16:51:30
(UTC+02:00)

Nauka - Pass Details

Date: 25 September 2021
Orbit: 417 x 423 km, 51.6° (Epoch: 26 October)

Event Time Altitude Azimuth Distance (km) Brightness Sun altitude
Rises 21:44:54 0° 298° (WNW) 2,365 ? -24.4°
Reaches altitude 10° 21:47:13 10° 311° (NW) 1,501 ? -24.7°
Enters shadow 21:49:13 23° 343° (NNW) 950 ? -25.1°
